period_start,C,m1,H,J0,J1,J2,J3,J4,J5,JA,JB,JC,JD,JJ,JK,JN,#
2018-04-13 00:04:16,0.08,6.55,0.00,24.11,27.73,30.77,14.01,50.06,1021.03,2019.20,1652.27,1795.37,2046.00,600.06,596.39,45.69,0000 0000 0000 0000 000000
2018-04-13 00:09:18,0.02,6.55,0.00,24.14,27.75,30.78,14.04,50.22,1021.02,2019.06,1651.98,1795.00,2045.47,600.12,596.42,45.74,0000 0000 0000 0000 000000
2018-04-13 00:14:19,0.07,6.56,0.00,24.18,27.77,30.80,13.90,50.14,1021.02,2019.04,1651.20,1794.72,2045.00,599.72,595.95,45.79,0000 0000 0000 0000 000000
2018-04-13 00:19:21,0.09,6.56,0.00,24.21,27.79,30.82,13.95,50.13,1021.01,2019.01,1650.65,1794.05,2044.46,599.80,595.99,45.84,0000 0000 0000 0000 000000
2018-04-13 00:24:22,0.04,6.56,0.00,24.24,27.81,30.84,13.95,50.20,1021.01,2019.00,1650.01,1793.82,2044.00,599.92,596.05,45.89,0000 0000 0000 0000 000000
2018-04-13 00:29:23,0.11,6.57,0.00,24.28,27.83,30.86,13.97,50.25,1021.01,2019.00,1649.48,1793.10,2043.34,600.07,596.16,45.94,0000 0000 0000 0000 000000
2018-04-13 00:34:25,0.01,6.57,0.00,24.33,27.86,30.88,13.92,50.27,1021.02,2018.99,1648.99,1792.95,2042.98,599.99,595.98,45.99,0000 0000 0000 0000 000000
2018-04-13 00:39:26,0.12,6.58,0.00,24.36,27.88,30.90,13.94,50.24,1021.01,2018.99,1648.28,1792.23,2042.30,600.03,595.94,46.04,0000 0000 0000 0000 000000
2018-04-13 00:44:28,0.04,6.58,0.00,24.40,27.90,30.93,14.04,50.31,1021.01,2018.99,1647.68,1791.99,2041.95,600.15,595.92,46.09,0000 0000 0000 0000 000000
2018-04-13 00:49:29,0.09,6.58,0.00,24.43,27.93,30.95,13.92,50.21,1021.01,2018.97,1647.00,1791.52,2041.19,599.75,595.47,46.14,0000 0000 0000 0000 000000
2018-04-13 00:54:30,0.06,6.59,0.00,24.46,27.96,30.97,14.06,50.29,1020.99,2018.90,1646.20,1791.01,2040.86,600.11,595.71,46.19,0000 0000 0000 0000 000000
2018-04-13 00:59:31,0.03,6.59,0.00,24.50,27.99,31.00,13.95,50.20,1020.90,2018.61,1645.77,1790.60,2040.06,600.11,595.58,46.24,0000 0000 0000 0000 000000
2018-04-13 01:04:33,0.02,6.59,0.00,24.54,28.01,31.03,13.97,50.26,1020.82,2018.19,1645.03,1790.01,2039.71,600.00,595.45,46.29,0000 0000 0000 0000 000000
2018-04-13 01:09:34,0.09,6.59,0.00,24.59,28.05,31.07,14.01,50.29,1020.61,2018.03,1644.41,1789.62,2039.01,600.19,595.24,46.34,0000 0000 0000 0000 000000
2018-04-13 01:14:35,0.06,6.60,0.00,24.63,28.08,31.08,13.99,50.18,1020.54,2018.01,1643.84,1789.02,2038.33,600.03,595.20,46.40,0000 0000 0000 0000 000000
2018-04-13 01:19:36,0.08,6.60,0.00,24.68,28.11,31.11,13.94,50.17,1020.52,2018.00,1643.07,1788.60,2037.94,599.93,594.74,46.45,0000 0000 0000 0000 000000
2018-04-13 01:24:37,0.08,6.61,0.00,24.73,28.14,31.12,13.90,50.18,1020.52,2017.99,1642.61,1788.03,2037.13,599.79,594.65,46.50,0000 0000 0000 0000 000000
2018-04-13 01:29:38,0.06,6.61,0.00,24.77,28.17,31.16,13.94,50.33,1020.50,2017.98,1641.98,1787.71,2036.77,599.49,594.21,46.55,0000 0000 0000 0000 000000
2018-04-13 01:34:40,0.07,6.61,0.00,24.78,28.20,31.19,13.96,50.23,1020.49,2017.84,1641.21,1787.03,2036.05,599.76,594.46,46.60,0000 0000 0000 0000 000000
2018-04-13 01:39:41,0.02,6.61,0.00,24.82,28.24,31.23,13.94,50.21,1020.52,2017.53,1640.74,1786.75,2035.53,600.40,595.06,46.65,0000 0000 0000 0000 000000
2018-04-13 01:44:42,0.03,6.62,0.00,24.86,28.27,31.26,13.93,50.24,1020.52,2017.16,1640.03,1786.05,2035.00,599.93,594.53,46.70,0000 0000 0000 0000 000000
2018-04-13 01:49:43,0.10,6.62,0.00,24.90,28.31,31.30,13.99,50.23,1020.45,2017.01,1639.37,1785.67,2034.28,599.88,594.22,46.75,0000 0000 0000 0000 000000
2018-04-13 01:54:45,0.06,6.62,0.00,24.95,28.34,31.33,13.90,50.27,1020.46,2017.00,1638.74,1785.03,2033.81,599.92,594.30,46.80,0000 0000 0000 0000 000000
2018-04-13 01:59:46,0.08,6.63,0.00,25.01,28.37,31.37,13.92,50.19,1020.42,2017.00,1638.00,1784.64,2033.06,600.10,594.33,46.85,0000 0000 0000 0000 000000
2018-04-13 02:04:47,0.09,6.63,0.00,25.04,28.41,31.38,13.98,50.24,1020.24,2016.97,1637.18,1784.02,2032.49,600.15,594.27,46.90,0000 0000 0000 0000 000000
2018-04-13 02:09:48,0.05,6.63,0.00,25.08,28.44,31.43,13.93,50.16,1020.10,2016.93,1636.79,1783.67,2032.00,600.21,594.10,46.95,0000 0000 0000 0000 000000
2018-04-13 02:14:49,0.06,6.64,0.00,25.13,28.48,31.46,13.96,50.14,1020.06,2016.72,1636.03,1783.02,2031.35,600.06,593.84,47.00,0000 0000 0000 0000 000000
2018-04-13 02:19:51,0.04,6.64,0.00,25.20,28.51,31.50,13.98,50.14,1020.04,2016.24,1635.25,1782.49,2030.76,600.25,593.89,47.05,0000 0000 0000 0000 000000
2018-04-13 02:24:52,0.06,6.64,0.00,25.23,28.55,31.53,13.95,50.21,1020.05,2016.02,1634.57,1781.97,2030.02,600.29,593.83,47.10,0000 0000 0000 0000 000000
2018-04-13 02:29:54,0.09,6.65,0.00,25.26,28.59,31.58,13.88,50.25,1020.06,2016.00,1633.97,1781.28,2029.39,599.40,593.22,47.15,0000 0000 0000 0000 000000
2018-04-13 02:34:55,0.07,6.65,0.00,25.32,28.63,31.62,13.88,50.14,1020.04,2016.00,1633.16,1780.93,2028.82,599.96,593.42,47.20,0000 0000 0000 0000 000000
2018-04-13 02:39:57,0.11,6.66,0.00,25.35,28.67,31.64,13.95,50.19,1020.04,2015.98,1632.53,1780.17,2028.06,600.18,593.48,47.25,0000 0000 0000 0000 000000
2018-04-13 02:44:58,0.06,6.66,0.00,25.39,28.71,31.70,13.96,50.17,1020.04,2015.93,1631.86,1779.84,2027.47,600.16,593.55,47.30,0000 0000 0000 0000 000000
2018-04-13 02:50:00,-0.00,6.66,0.00,25.46,28.75,31.73,13.89,50.18,1020.04,2015.35,1631.03,1779.06,2026.89,600.03,593.15,47.35,0000 0000 0000 0000 000000
2018-04-13 02:55:01,0.10,6.66,0.00,25.51,28.79,31.76,13.89,50.18,1020.04,2015.09,1630.28,1778.64,2026.10,599.74,592.76,47.41,0000 0000 0000 0000 000000
2018-04-13 03:00:02,0.08,6.67,0.00,25.53,28.84,31.81,13.89,50.19,1020.04,2015.00,1629.60,1777.99,2025.47,599.66,592.67,47.46,0000 0000 0000 0000 000000
2018-04-13 03:05:03,0.09,6.68,0.00,25.60,28.88,31.85,13.88,50.12,1020.04,2014.98,1628.83,1777.28,2024.83,599.82,592.69,47.51,0000 0000 0000 0000 000000
2018-04-13 03:10:04,0.06,6.68,0.00,25.64,28.92,31.89,13.85,50.16,1020.04,2014.95,1628.04,1776.95,2024.05,599.70,592.63,47.56,0000 0000 0000 0000 000000
2018-04-13 03:15:06,0.09,6.68,0.00,25.68,28.97,31.93,13.85,50.04,1020.04,2014.70,1627.28,1776.14,2023.48,599.98,592.63,47.61,0000 0000 0000 0000 000000
2018-04-13 03:20:07,0.01,6.68,0.00,25.75,29.01,31.97,13.87,50.08,1020.04,2014.17,1626.54,1775.76,2022.82,600.30,592.81,47.66,0000 0000 0000 0000 000000
2018-04-13 03:25:08,0.08,6.69,0.00,25.81,29.06,32.00,13.96,50.17,1020.04,2014.02,1625.78,1775.03,2022.03,600.17,592.47,47.71,0000 0000 0000 0000 000000
2018-04-13 03:30:10,0.12,6.69,0.00,25.84,29.10,32.05,13.82,50.17,1019.99,2014.00,1624.98,1774.34,2021.24,599.98,592.29,47.76,0000 0000 0000 0000 000000
2018-04-13 03:35:11,0.08,6.70,0.00,25.89,29.15,32.10,13.85,50.19,1019.98,2013.98,1624.12,1773.90,2020.63,599.94,592.17,47.81,0000 0000 0000 0000 000000
2018-04-13 03:40:12,0.11,6.70,0.00,25.96,29.19,32.13,13.86,50.14,1020.03,2013.92,1623.35,1773.09,2019.92,600.02,592.21,47.86,0000 0000 0000 0000 000000
2018-04-13 03:45:13,0.03,6.71,0.00,25.99,29.24,32.18,13.92,50.22,1020.03,2013.38,1622.56,1772.48,2019.08,600.17,592.12,47.91,0000 0000 0000 0000 000000
2018-04-13 03:50:15,0.06,6.71,0.00,26.01,29.29,32.24,13.96,50.21,1020.02,2013.04,1621.76,1771.98,2018.33,600.29,592.28,47.96,0000 0000 0000 0000 000000
2018-04-13 03:55:16,0.10,6.71,0.00,26.09,29.33,32.27,13.82,50.02,1019.93,2013.00,1620.96,1771.20,2017.70,599.93,591.80,48.01,0000 0000 0000 0000 000000
2018-04-13 04:00:17,0.09,6.72,0.00,26.10,29.38,32.30,13.85,49.98,1019.69,2013.00,1620.12,1770.77,2017.01,599.86,591.47,48.06,0000 0000 0000 0000 000000
2018-04-13 04:05:19,0.11,6.72,0.00,26.13,29.42,32.36,13.82,50.09,1019.59,2012.96,1619.36,1770.03,2016.32,599.98,591.51,48.11,0000 0000 0000 0000 000000
2018-04-13 04:10:20,0.05,6.73,0.00,26.21,29.46,32.39,13.83,50.08,1019.58,2012.83,1618.78,1769.54,2015.83,600.09,591.42,48.16,0000 0000 0000 0000 000000
2018-04-13 04:15:21,0.00,6.73,0.00,26.22,29.50,32.42,13.93,50.08,1019.59,2012.31,1618.02,1769.01,2015.06,600.08,591.43,48.21,0000 0000 0000 0000 000000
2018-04-13 04:20:22,0.10,6.73,0.00,26.23,29.53,32.46,13.80,50.01,1019.60,2012.03,1617.24,1768.42,2014.33,599.81,591.26,48.26,0000 0000 0000 0000 000000
2018-04-13 04:25:24,0.06,6.73,0.00,26.31,29.57,32.49,13.82,50.02,1019.58,2012.01,1616.50,1767.97,2013.87,599.87,590.81,48.32,0000 0000 0000 0000 000000
2018-04-13 04:30:25,0.09,6.74,0.00,26.34,29.60,32.54,13.81,49.92,1019.58,2012.00,1615.87,1767.27,2013.08,599.98,591.07,48.37,0000 0000 0000 0000 000000
2018-04-13 04:35:27,0.07,6.74,0.00,26.38,29.63,32.56,13.92,50.02,1019.59,2011.99,1615.07,1766.97,2012.51,600.30,591.33,48.42,0000 0000 0000 0000 000000
2018-04-13 04:40:28,0.10,6.75,0.00,26.39,29.65,32.57,13.92,49.92,1019.59,2011.99,1614.40,1766.23,2012.00,600.00,591.01,48.47,0000 0000 0000 0000 000000
2018-04-13 04:45:29,0.04,6.75,0.00,26.42,29.67,32.62,13.78,49.80,1019.66,2011.98,1613.92,1765.97,2011.32,600.34,591.28,48.52,0000 0000 0000 0000 000000
2018-04-13 04:50:31,0.09,6.76,0.00,26.46,29.70,32.65,13.91,49.89,1019.68,2011.94,1613.10,1765.31,2010.96,600.15,591.08,48.57,0000 0000 0000 0000 000000
2018-04-13 04:55:32,0.07,6.76,0.00,26.47,29.70,32.67,13.82,49.88,1019.64,2011.87,1612.50,1764.99,2010.16,599.85,590.83,48.62,0000 0000 0000 0000 000000
2018-04-13 05:00:33,0.05,6.76,0.00,26.49,29.72,32.70,13.85,49.98,1019.57,2011.84,1611.98,1764.59,2009.96,600.05,591.04,48.67,0000 0000 0000 0000 000000
2018-04-13 05:05:34,0.10,6.77,0.00,26.53,29.72,32.74,13.88,50.04,1019.59,2011.82,1611.17,1764.02,2009.22,600.14,590.84,48.72,0000 0000 0000 0000 000000
2018-04-13 05:10:36,0.00,6.77,0.00,26.48,29.72,32.79,13.87,50.08,1019.57,2011.59,1610.70,1763.86,2008.94,600.01,590.73,48.77,0000 0000 0000 0000 000000
2018-04-13 05:15:37,0.09,6.77,0.00,26.55,29.72,32.70,13.82,50.02,1019.56,2011.45,1610.01,1763.09,2008.15,600.54,591.18,48.82,0000 0000 0000 0000 000000
2018-04-13 05:20:38,0.06,6.78,0.00,26.51,29.70,32.65,13.85,50.01,1019.56,2011.53,1609.38,1762.98,2007.99,599.98,590.64,48.87,0000 0000 0000 0000 000000
2018-04-13 05:25:40,0.10,6.78,0.00,26.46,29.69,32.57,13.78,50.04,1019.55,2011.71,1608.93,1762.54,2007.44,599.68,590.49,48.92,0000 0000 0000 0000 000000
2018-04-13 05:30:41,0.08,6.79,0.00,26.58,29.67,32.56,13.80,50.09,1019.55,2011.85,1608.13,1762.02,2007.00,599.84,590.50,48.97,0000 0000 0000 0000 000000
2018-04-13 05:35:42,0.07,6.79,0.00,26.52,29.65,32.53,13.91,50.28,1019.54,2011.90,1607.68,1761.91,2006.52,600.19,590.97,49.02,0000 0000 0000 0000 000000
2018-04-13 05:40:43,0.09,6.79,0.00,26.50,29.62,32.47,13.81,50.39,1019.43,2011.95,1607.02,1761.22,2006.02,599.84,590.50,49.07,0000 0000 0000 0000 000000
2018-04-13 05:45:45,0.05,6.80,0.00,26.60,29.60,32.32,13.77,50.31,1019.12,2011.98,1606.49,1761.00,2005.94,599.90,590.26,49.12,0000 0000 0000 0000 000000
2018-04-13 05:50:47,0.04,6.80,0.00,26.54,29.57,32.11,13.77,50.31,1019.06,2011.99,1605.98,1760.88,2005.19,599.88,590.23,49.17,0000 0000 0000 0000 000000
2018-04-13 05:55:48,0.09,6.80,0.00,26.57,29.54,32.06,13.74,50.35,1019.07,2011.99,1605.24,1760.16,2005.00,599.81,590.13,49.23,0000 0000 0000 0000 000000
2018-04-13 06:00:49,0.02,6.81,0.00,26.67,29.51,32.00,13.75,50.33,1019.06,2011.99,1604.94,1760.00,2004.70,600.01,590.17,49.28,0000 0000 0000 0000 000000
2018-04-13 06:05:51,0.07,6.81,0.00,26.60,29.48,32.05,13.78,50.28,1019.06,2012.02,1604.12,1759.95,2004.03,600.02,590.30,49.33,0000 0000 0000 0000 000000
2018-04-13 06:10:52,0.07,6.81,0.00,26.60,29.45,32.03,13.77,50.26,1019.06,2012.04,1603.82,1759.30,2003.92,599.73,589.94,49.38,0000 0000 0000 0000 000000
2018-04-13 06:15:54,0.10,6.82,0.00,26.69,29.42,32.01,13.81,50.30,1019.04,2012.24,1603.06,1759.01,2003.19,599.91,589.98,49.43,0000 0000 0000 0000 000000
2018-04-13 06:20:55,0.11,6.82,0.00,26.55,29.39,32.02,13.77,50.26,1018.99,2012.71,1602.65,1758.82,2003.00,599.75,590.03,49.48,0000 0000 0000 0000 000000
2018-04-13 06:25:56,0.10,6.83,0.00,26.33,29.36,32.05,13.78,50.47,1018.71,2012.90,1601.98,1758.09,2002.62,600.09,590.69,49.53,0000 0000 0000 0000 000000
2018-04-13 06:30:57,0.06,6.83,0.00,26.27,29.33,32.05,13.82,50.57,1018.72,2012.99,1601.17,1757.99,2002.04,599.66,590.42,49.58,0000 0000 0000 0000 000000
2018-04-13 06:35:59,0.02,6.84,0.00,26.22,29.30,32.03,13.80,50.64,1018.60,2012.99,1600.96,1757.84,2001.96,599.95,590.57,49.63,0000 0000 0000 0000 000000
2018-04-13 06:41:00,0.12,6.84,0.00,26.27,29.27,32.04,13.82,50.63,1018.58,2012.99,1600.19,1757.15,2001.31,599.79,590.47,49.68,0000 0000 0000 0000 000000
2018-04-13 06:46:01,0.02,6.84,0.00,26.27,29.25,32.01,13.85,50.62,1018.58,2013.00,1599.85,1757.00,2001.00,600.06,590.77,49.73,0000 0000 0000 0000 000000
2018-04-13 06:51:02,0.08,6.85,0.00,26.25,29.22,32.00,13.86,50.61,1018.57,2013.03,1599.07,1756.73,2000.68,600.35,591.06,49.78,0000 0000 0000 0000 000000
2018-04-13 06:56:04,0.06,6.85,0.00,26.28,29.20,32.00,13.77,50.66,1018.57,2013.07,1598.91,1756.06,2000.04,600.03,590.61,49.83,0000 0000 0000 0000 000000
2018-04-13 07:01:05,0.06,6.85,0.00,26.33,29.18,31.99,13.76,50.54,1018.57,2013.16,1598.16,1756.00,1999.93,600.19,590.71,49.88,0000 0000 0000 0000 000000
2018-04-13 07:06:06,0.16,6.86,0.00,26.31,29.16,32.00,13.84,50.73,1018.54,2013.47,1597.68,1755.60,1999.19,600.02,590.59,49.93,0000 0000 0000 0000 000000
2018-04-13 07:11:07,0.08,6.87,0.00,26.38,29.15,31.98,13.71,50.65,1018.48,2013.87,1597.02,1755.02,1998.98,599.39,589.76,49.98,0000 0000 0000 0000 000000
2018-04-13 07:16:09,0.09,6.87,0.00,26.41,29.13,32.00,13.78,50.55,1018.40,2013.95,1596.30,1754.91,1998.36,599.94,590.23,50.03,0000 0000 0000 0000 000000
2018-04-13 07:21:10,0.09,6.87,0.00,26.40,29.12,31.97,13.80,50.69,1018.42,2013.96,1595.69,1754.14,1997.99,599.83,590.14,50.08,0000 0000 0000 0000 000000
2018-04-13 07:26:11,0.06,6.88,0.00,26.48,29.11,31.90,13.84,50.58,1018.43,2013.97,1595.03,1753.99,1997.31,600.24,590.40,50.13,0000 0000 0000 0000 000000
2018-04-13 07:31:13,0.08,6.88,0.00,26.53,29.10,31.84,13.83,50.58,1018.39,2013.99,1594.59,1753.51,1996.99,600.41,590.42,50.19,0000 0000 0000 0000 000000
2018-04-13 07:36:14,0.05,6.89,0.00,26.50,29.10,31.83,13.68,50.45,1018.34,2013.99,1594.01,1753.02,1996.50,599.78,589.92,50.24,0000 0000 0000 0000 000000
2018-04-13 07:41:15,0.07,6.89,0.00,26.55,29.10,31.82,13.80,50.45,1018.21,2013.99,1593.32,1752.84,1996.01,600.13,590.01,50.29,0000 0000 0000 0000 000000
2018-04-13 07:46:17,0.12,6.89,0.00,26.66,29.10,31.81,13.72,50.41,1018.19,2013.99,1592.54,1752.06,1995.47,599.83,589.47,50.34,0000 0000 0000 0000 000000
2018-04-13 07:51:18,0.07,6.90,0.00,26.64,29.10,31.81,13.78,50.42,1018.22,2013.99,1591.77,1751.69,1994.89,599.80,589.33,50.39,0000 0000 0000 0000 000000
2018-04-13 07:56:19,0.09,6.90,0.00,26.65,29.10,31.83,13.79,50.46,1018.24,2013.99,1591.00,1751.03,1994.08,600.42,590.17,50.44,0000 0000 0000 0000 000000
2018-04-13 08:01:20,0.12,6.91,0.00,26.75,29.11,31.84,13.80,50.52,1018.16,2013.99,1590.10,1750.52,1993.62,600.11,589.65,50.49,0000 0000 0000 0000 000000
2018-04-13 08:06:22,0.09,6.91,0.00,26.78,29.12,31.86,13.68,50.60,1018.17,2013.99,1589.16,1749.90,1992.86,600.07,589.57,50.54,0000 0000 0000 0000 000000
2018-04-13 08:11:23,0.13,6.92,0.00,26.78,29.12,31.89,13.77,50.58,1018.15,2013.99,1588.28,1749.08,1992.05,599.84,589.46,50.59,0000 0000 0000 0000 000000
2018-04-13 08:16:24,0.14,6.93,0.00,26.85,29.14,31.91,13.84,50.66,1018.10,2013.99,1587.12,1748.35,1991.30,600.04,589.24,50.64,0000 0000 0000 0000 000000
2018-04-13 08:21:26,0.05,6.93,0.00,26.92,29.15,31.93,13.71,50.48,1018.11,2014.00,1586.61,1748.00,1990.85,599.73,588.83,50.69,0000 0000 0000 0000 000000
2018-04-13 08:26:27,0.11,6.94,0.00,26.92,29.17,31.95,13.77,50.60,1018.11,2013.99,1585.81,1747.39,1990.05,600.27,589.37,50.74,0000 0000 0000 0000 000000
2018-04-13 08:31:28,0.09,6.94,0.00,26.90,29.19,31.98,13.77,50.47,1018.10,2013.99,1584.91,1746.91,1989.34,599.54,588.69,50.79,0000 0000 0000 0000 000000
2018-04-13 08:36:30,0.10,6.95,0.00,26.99,29.21,32.00,13.70,50.54,1018.08,2013.99,1584.21,1746.16,1988.83,599.92,588.86,50.84,0000 0000 0000 0000 000000
2018-04-13 08:41:31,0.09,6.95,0.00,27.02,29.23,32.02,13.77,50.46,1018.09,2013.99,1583.33,1745.78,1988.05,599.91,588.80,50.89,0000 0000 0000 0000 000000
2018-04-13 08:46:32,0.13,6.96,0.00,27.01,29.25,32.07,13.77,50.52,1018.11,2013.98,1582.50,1745.06,1987.39,599.68,588.62,50.94,0000 0000 0000 0000 000000
2018-04-13 08:51:34,0.13,6.96,0.00,27.03,29.27,32.11,13.80,50.38,1018.10,2013.98,1581.52,1744.30,1986.73,600.15,588.96,50.99,0000 0000 0000 0000 000000
2018-04-13 08:56:35,0.07,6.97,0.00,27.11,29.30,32.09,13.81,50.43,1018.10,2013.98,1580.67,1743.86,1985.99,600.23,588.83,51.04,0000 0000 0000 0000 000000
2018-04-13 09:01:36,0.09,6.97,0.00,27.13,29.32,32.13,13.71,50.49,1018.09,2013.94,1579.91,1743.07,1985.16,599.94,588.57,51.10,0000 0000 0000 0000 000000
2018-04-13 09:06:37,0.11,6.98,0.00,27.12,29.35,32.17,13.67,50.45,1018.10,2013.76,1579.03,1742.49,1984.48,599.47,588.23,51.15,0000 0000 0000 0000 000000
2018-04-13 09:11:38,0.03,6.98,0.00,27.12,29.37,32.19,13.70,50.46,1018.10,2013.33,1578.12,1741.80,1983.73,600.09,588.81,51.20,0000 0000 0000 0000 000000
2018-04-13 09:16:40,0.09,6.99,0.00,27.20,29.40,32.21,13.72,50.44,1018.09,2013.11,1577.10,1741.04,1983.02,600.40,588.98,51.25,0000 0000 0000 0000 000000
2018-04-13 09:21:40,0.11,6.99,0.00,27.24,29.42,32.25,13.78,50.62,1018.12,2013.09,1576.28,1740.68,1982.56,600.20,588.63,51.30,0000 0000 0000 0000 000000
2018-04-13 09:26:42,0.07,7.00,0.00,27.22,29.45,32.26,13.74,50.58,1018.11,2013.07,1575.69,1740.03,1982.01,599.99,588.58,51.35,0000 0000 0000 0000 000000
2018-04-13 09:31:43,0.06,7.00,0.00,27.21,29.47,32.28,13.77,50.54,1018.11,2013.04,1575.03,1739.84,1981.44,600.26,588.76,51.40,0000 0000 0000 0000 000000
2018-04-13 09:36:45,0.09,7.00,0.00,27.21,29.50,32.33,13.81,50.52,1018.11,2013.02,1574.37,1739.09,1981.00,599.91,588.42,51.45,0000 0000 0000 0000 000000
2018-04-13 09:41:46,0.06,7.01,0.00,27.27,29.52,32.35,13.79,50.62,1018.10,2013.00,1573.80,1738.88,1980.35,600.04,588.51,51.50,0000 0000 0000 0000 000000
2018-04-13 09:46:46,0.09,7.01,0.00,27.30,29.55,32.35,13.69,50.70,1018.08,2013.00,1573.04,1738.13,1979.95,599.86,588.26,51.55,0000 0000 0000 0000 000000
2018-04-13 09:51:48,0.08,7.02,0.00,27.27,29.57,32.40,13.71,50.73,1018.09,2013.00,1572.44,1737.98,1979.15,599.86,588.13,51.60,0000 0000 0000 0000 000000
2018-04-13 09:56:49,0.06,7.02,0.00,27.25,29.60,32.43,13.75,50.67,1018.10,2013.00,1572.00,1737.28,1978.94,599.71,588.06,51.65,0000 0000 0000 0000 000000
2018-04-13 10:01:50,0.09,7.02,0.00,27.26,29.61,32.45,13.67,50.67,1018.09,2013.00,1571.24,1736.99,1978.11,599.94,588.39,51.70,0000 0000 0000 0000 000000
2018-04-13 10:06:51,0.10,7.03,0.00,27.32,29.64,32.47,13.76,50.58,1018.10,2012.96,1570.66,1736.36,1977.65,600.04,588.36,51.75,0000 0000 0000 0000 000000
2018-04-13 10:11:53,0.04,7.03,0.00,27.31,29.66,32.48,13.73,50.62,1018.09,2012.97,1569.99,1735.99,1977.01,600.11,588.49,51.80,0000 0000 0000 0000 000000
2018-04-13 10:16:54,0.13,7.04,0.00,27.27,29.68,32.49,13.78,50.68,1018.08,2012.93,1569.16,1735.41,1976.34,600.14,588.46,51.85,0000 0000 0000 0000 000000
2018-04-13 10:21:55,0.02,7.04,0.00,27.28,29.70,32.52,13.78,50.72,1018.08,2012.81,1568.56,1734.97,1975.90,600.16,588.53,51.90,0000 0000 0000 0000 000000
2018-04-13 10:26:57,0.11,7.05,0.00,27.29,29.72,32.56,13.80,50.81,1018.08,2012.70,1567.77,1734.30,1975.11,599.97,588.31,51.95,0000 0000 0000 0000 000000
2018-04-13 10:31:58,0.05,7.05,0.00,27.32,29.74,32.57,13.69,50.75,1018.08,2012.38,1566.88,1733.88,1974.43,600.25,588.55,52.00,0000 0000 0000 0000 000000
2018-04-13 10:36:59,0.12,7.05,0.00,27.32,29.75,32.58,13.83,50.83,1018.08,2012.39,1566.04,1733.10,1973.86,600.52,588.73,52.06,0000 0000 0000 0000 000000
2018-04-13 10:42:01,0.06,7.06,0.00,27.30,29.77,32.61,13.75,50.77,1018.08,2012.16,1565.23,1732.76,1973.06,600.11,588.52,52.11,0000 0000 0000 0000 000000
2018-04-13 10:47:02,0.10,7.06,0.00,27.29,29.78,32.63,13.75,50.82,1018.08,2012.08,1564.55,1732.04,1972.45,600.18,588.56,52.16,0000 0000 0000 0000 000000
2018-04-13 10:52:03,0.08,7.06,0.00,27.33,29.80,32.64,13.74,50.77,1018.08,2012.04,1563.83,1731.56,1971.92,600.06,588.36,52.21,0000 0000 0000 0000 000000
2018-04-13 10:57:04,0.08,7.07,0.00,27.30,29.82,32.66,13.79,50.83,1018.08,2012.02,1563.03,1731.01,1971.12,599.83,588.16,52.26,0000 0000 0000 0000 000000
2018-04-13 11:02:06,0.13,7.08,0.00,27.27,29.82,32.68,13.67,50.75,1018.08,2012.01,1562.17,1730.42,1970.42,599.83,588.21,52.31,0000 0000 0000 0000 000000
2018-04-13 11:07:07,0.07,7.08,0.00,27.25,29.85,32.70,13.72,50.77,1018.08,2012.00,1561.42,1729.97,1969.86,599.89,588.24,52.36,0000 0000 0000 0000 000000
2018-04-13 11:12:08,0.12,7.09,0.00,27.23,29.85,32.73,13.75,50.82,1018.08,2012.00,1560.65,1729.20,1969.06,600.31,588.82,52.41,0000 0000 0000 0000 000000
2018-04-13 11:17:09,0.06,7.09,0.00,27.13,29.87,32.77,13.83,50.82,1018.08,2012.00,1559.95,1728.94,1968.43,600.12,588.77,52.46,0000 0000 0000 0000 000000
2018-04-13 11:22:11,0.11,7.10,0.00,27.04,29.87,32.76,13.79,50.93,1018.07,2012.00,1559.11,1728.18,1967.95,599.87,588.82,52.51,0000 0000 0000 0000 000000
2018-04-13 11:27:12,0.08,7.10,0.00,27.04,29.87,32.75,13.75,50.78,1018.06,2012.00,1558.30,1727.95,1967.14,599.85,588.71,52.56,0000 0000 0000 0000 000000
2018-04-13 11:32:14,0.11,7.11,0.00,26.99,29.87,32.75,13.77,50.83,1018.08,2012.00,1557.64,1727.22,1966.73,600.06,589.11,52.61,0000 0000 0000 0000 000000
2018-04-13 11:37:15,0.05,7.11,0.00,26.91,29.87,32.81,13.81,50.92,1018.06,2012.00,1556.90,1726.98,1966.03,599.99,589.19,52.66,0000 0000 0000 0000 000000
2018-04-13 11:42:16,0.12,7.12,0.00,26.88,29.86,32.85,13.81,51.04,1017.91,2012.00,1556.08,1726.37,1965.44,599.93,588.97,52.71,0000 0000 0000 0000 000000
2018-04-13 11:47:17,0.05,7.12,0.00,26.87,29.85,32.91,13.77,50.95,1017.66,2012.00,1555.56,1726.01,1964.99,599.99,588.96,52.76,0000 0000 0000 0000 000000
2018-04-13 11:52:18,0.08,7.12,0.00,26.81,29.85,32.89,13.78,50.89,1017.62,2012.00,1554.92,1725.64,1964.31,599.76,588.85,52.81,0000 0000 0000 0000 000000
2018-04-13 11:57:20,0.08,7.13,0.00,26.77,29.82,32.87,13.78,50.97,1017.61,2012.00,1554.10,1725.04,1963.99,600.14,589.17,52.86,0000 0000 0000 0000 000000
2018-04-13 12:02:21,0.08,7.13,0.00,26.77,29.81,32.82,13.79,51.01,1017.62,2012.01,1553.54,1724.90,1963.25,600.11,589.25,52.91,0000 0000 0000 0000 000000
2018-04-13 12:07:22,0.07,7.14,0.00,26.74,29.80,32.78,13.83,50.97,1017.67,2012.04,1552.98,1724.15,1962.97,599.90,589.02,52.97,0000 0000 0000 0000 000000
2018-04-13 12:12:23,0.08,7.14,0.00,26.69,29.77,32.74,13.87,50.96,1017.92,2012.05,1552.18,1723.99,1962.28,599.73,589.18,53.02,0000 0000 0000 0000 000000
2018-04-13 12:17:24,0.11,7.14,0.00,26.71,29.77,32.70,13.78,51.05,1017.97,2012.15,1551.66,1723.53,1961.96,600.28,589.68,53.07,0000 0000 0000 0000 000000
2018-04-13 12:22:26,0.08,7.15,0.00,26.71,29.75,32.67,13.82,50.96,1018.07,2012.28,1551.01,1723.01,1961.19,600.20,589.49,53.12,0000 0000 0000 0000 000000
2018-04-13 12:27:27,0.07,7.15,0.00,26.70,29.73,32.64,13.83,51.00,1018.08,2012.37,1550.46,1722.82,1960.97,599.94,589.47,53.17,0000 0000 0000 0000 000000
2018-04-13 12:32:28,0.14,7.16,0.00,26.68,29.72,32.64,13.84,51.12,1018.09,2012.56,1549.68,1722.08,1960.22,600.24,589.76,53.22,0000 0000 0000 0000 000000
2018-04-13 12:37:29,0.07,7.17,0.00,26.69,29.70,32.61,13.79,50.99,1018.09,2012.89,1549.01,1721.93,1959.94,599.41,588.97,53.27,0000 0000 0000 0000 000000
2018-04-13 12:42:31,0.13,7.17,0.00,26.72,29.69,32.61,13.77,51.03,1018.08,2012.92,1548.44,1721.23,1959.17,599.87,589.36,53.32,0000 0000 0000 0000 000000
2018-04-13 12:47:32,0.04,7.17,0.00,26.71,29.67,32.59,13.84,51.20,1018.08,2012.97,1547.80,1720.98,1958.91,600.12,589.73,53.37,0000 0000 0000 0000 000000
2018-04-13 12:52:34,0.11,7.18,0.00,26.69,29.66,32.59,13.73,50.97,1018.08,2012.98,1547.05,1720.49,1958.15,599.75,589.17,53.42,0000 0000 0000 0000 000000
2018-04-13 12:57:35,0.08,7.18,0.00,26.67,29.65,32.58,13.88,50.98,1018.08,2012.99,1546.29,1720.02,1957.78,600.17,589.70,53.47,0000 0000 0000 0000 000000